User: anonymous   Login
Location: Natural Bridges National Monument
(37.6093°N, 109.9767°W)
Time: 05:22:08
(UTC-06:00)
Language:

Cosmos 1727 Rocket - Orbit

View from above orbital plane
View from above orbital plane
View from above satellite
View from above satellite

Ground track
Ground track

The orbit data is extracted from the following two-line orbital elements,

1 16511U 86008B   15212.07387017 -.00000025  00000-0 -41901-4 0  9998
2 16511 082.9443 009.4681 0025127 044.5868 092.9538 13.75798764481798
Epoch (UTC): 31 July 2015 01:46:22
Eccentricity: 0.0025127
inclination: 82.9443°
perigee height: 960 km
apogee height: 997 km
right ascension of ascending node: 9.4681°
argument of perigee: 44.5868°
revolutions per day: 13.75798764
mean anomaly at epoch: 92.9538°
orbit number at epoch: 48179

The dashed part of the orbit path shows where the satellite is in the earth's shadow,  

DLR